Time,TemperatureF,DewpointF,PressureIn,WindDirection,WindDirectionDegrees,WindSpeedMPH,WindSpeedGustMPH,Humidity,HourlyPrecipIn,Conditions,Clouds,dailyrainin,SoftwareType,DateUTC
2013-01-13 10:30:00,35.6,34.8,30.09,ESE,115,1.0,1.0,97,0.00,,,0.00,Wunderground v.1.15,2013-01-13 15:30:00,
2013-01-13 10:35:00,35.9,34.9,30.08,SE,128,2.0,3.0,96,0.00,,,0.00,Wunderground v.1.15,2013-01-13 15:35:00,
2013-01-13 10:45:00,36.5,35.2,30.08,SE,124,2.0,2.0,95,0.00,,,0.00,Wunderground v.1.15,2013-01-13 15:45:00,
2013-01-13 10:50:00,36.7,35.1,30.08,SE,133,2.0,2.0,94,0.00,,,0.00,Wunderground v.1.15,2013-01-13 15:50:00,
2013-01-13 10:55:00,36.9,35.1,30.07,SE,129,2.0,2.0,93,0.00,,,0.00,Wunderground v.1.15,2013-01-13 15:55:00,
2013-01-13 11:00:00,37.2,35.1,30.07,ESE,118,1.0,2.0,92,0.00,,,0.00,Wunderground v.1.15,2013-01-13 16:00:00,
2013-01-13 11:05:00,37.2,35.1,30.06,ESE,118,2.0,3.0,92,0.00,,,0.00,Wunderground v.1.15,2013-01-13 16:05:00,
2013-01-13 11:15:00,37.8,35.7,30.06,ESE,120,2.0,3.0,92,0.00,,,0.00,Wunderground v.1.15,2013-01-13 16:15:00,
2013-01-13 11:20:00,38.2,35.8,30.05,SE,128,1.0,1.0,91,0.00,,,0.00,Wunderground v.1.15,2013-01-13 16:20:00,
2013-01-13 11:25:00,38.5,35.8,30.05,SE,128,2.0,2.0,90,0.00,,,0.00,Wunderground v.1.15,2013-01-13 16:25:00,
2013-01-13 11:35:00,38.7,36.3,30.05,SE,131,1.0,1.0,91,0.00,,,0.00,Wunderground v.1.15,2013-01-13 16:35:00,
2013-01-13 11:40:00,39.2,36.5,30.05,ESE,120,0.0,1.0,90,0.00,,,0.00,Wunderground v.1.15,2013-01-13 16:40:00,
2013-01-13 11:50:00,40.5,37.5,30.04,SE,126,1.0,2.0,89,0.00,,,0.00,Wunderground v.1.15,2013-01-13 16:50:00,
2013-01-13 11:55:00,40.8,37.5,30.04,SE,145,2.0,2.0,88,0.00,,,0.00,Wunderground v.1.15,2013-01-13 16:55:00,
2013-01-13 12:00:00,41.3,37.7,30.03,SE,133,2.0,2.0,87,0.00,,,0.00,Wunderground v.1.15,2013-01-13 17:00:00,
2013-01-13 12:10:00,42.7,38.5,30.02,SE,125,1.0,6.0,85,0.00,,,0.00,Wunderground v.1.15,2013-01-13 17:10:00,
2013-01-13 12:15:00,43.0,38.5,30.03,SSE,150,3.0,6.0,84,0.00,,,0.00,Wunderground v.1.15,2013-01-13 17:15:00,
2013-01-13 12:25:00,42.7,38.5,30.03,SSE,155,4.0,4.0,85,0.00,,,0.00,Wunderground v.1.15,2013-01-13 17:25:00,
2013-01-13 12:30:00,42.2,38.0,30.03,SE,135,3.0,3.0,85,0.00,,,0.00,Wunderground v.1.15,2013-01-13 17:30:00,
2013-01-13 12:35:00,41.9,38.0,30.02,NE,55,2.0,3.0,86,0.00,,,0.00,Wunderground v.1.15,2013-01-13 17:35:00,
2013-01-13 12:40:00,41.6,38.0,30.02,SE,126,2.0,5.0,87,0.00,,,0.00,Wunderground v.1.15,2013-01-13 17:40:00,
2013-01-13 12:50:00,41.2,37.9,30.02,SE,131,3.0,3.0,88,0.00,,,0.00,Wunderground v.1.15,2013-01-13 17:50:00,
2013-01-13 12:55:00,41.1,37.8,30.01,ENE,63,2.0,3.0,88,0.00,,,0.00,Wunderground v.1.15,2013-01-13 17:55:00,
2013-01-13 13:05:00,41.0,37.7,30.01,ESE,122,2.0,3.0,88,0.00,,,0.00,Wunderground v.1.15,2013-01-13 18:05:00,
2013-01-13 13:10:00,41.2,37.9,30.01,ESE,110,2.0,3.0,88,0.00,,,0.00,Wunderground v.1.15,2013-01-13 18:10:00,
2013-01-13 13:15:00,41.5,38.2,30.01,ESE,120,2.0,3.0,88,0.00,,,0.00,Wunderground v.1.15,2013-01-13 18:15:00,
2013-01-13 13:25:00,42.4,38.5,30.00,ESE,120,2.0,3.0,86,0.00,,,0.00,Wunderground v.1.15,2013-01-13 18:25:00,
2013-01-13 13:30:00,42.3,38.4,30.00,ESE,113,3.0,3.0,86,0.00,,,0.00,Wunderground v.1.15,2013-01-13 18:30:00,
2013-01-13 13:40:00,42.4,38.5,30.00,ESE,113,2.0,2.0,86,0.00,,,0.00,Wunderground v.1.15,2013-01-13 18:40:00,
2013-01-13 13:45:00,42.3,38.4,30.00,SW,236,2.0,2.0,86,0.00,,,0.00,Wunderground v.1.15,2013-01-13 18:45:00,
2013-01-13 13:50:00,42.1,38.2,30.00,ESE,117,3.0,3.0,86,0.00,,,0.00,Wunderground v.1.15,2013-01-13 18:50:00,
2013-01-13 14:00:00,42.3,38.4,29.99,SSE,150,2.0,2.0,86,0.00,,,0.00,Wunderground v.1.15,2013-01-13 19:00:00,
2013-01-13 14:05:00,42.5,38.3,29.99,ESE,123,4.0,5.0,85,0.00,,,0.00,Wunderground v.1.15,2013-01-13 19:05:00,
2013-01-13 14:10:00,42.6,38.4,29.99,ESE,123,3.0,3.0,85,0.00,,,0.00,Wunderground v.1.15,2013-01-13 19:10:00,
2013-01-13 14:20:00,42.0,37.8,29.99,ESE,116,2.0,2.0,85,0.00,,,0.00,Wunderground v.1.15,2013-01-13 19:20:00,
2013-01-13 14:25:00,41.7,37.8,29.99,SE,136,2.0,2.0,86,0.00,,,0.00,Wunderground v.1.15,2013-01-13 19:25:00,
2013-01-13 14:35:00,41.2,37.3,29.99,SE,127,2.0,3.0,86,0.00,,,0.00,Wunderground v.1.15,2013-01-13 19:35:00,
2013-01-13 14:40:00,40.7,37.1,29.99,SE,136,2.0,2.0,87,0.00,,,0.00,Wunderground v.1.15,2013-01-13 19:40:00,
2013-01-13 14:45:00,40.5,37.2,29.99,SE,136,2.0,2.0,88,0.00,,,0.00,Wunderground v.1.15,2013-01-13 19:45:00,
2013-01-13 14:55:00,40.0,36.7,29.98,NE,39,2.0,3.0,88,0.00,,,0.00,Wunderground v.1.15,2013-01-13 19:55:00,
2013-01-13 15:00:00,39.8,36.8,29.97,WNW,302,2.0,2.0,89,0.00,,,0.00,Wunderground v.1.15,2013-01-13 20:00:00,
2013-01-13 15:10:00,40.0,37.0,29.98,ENE,64,2.0,2.0,89,0.00,,,0.00,Wunderground v.1.15,2013-01-13 20:10:00,
2013-01-13 15:15:00,40.2,37.2,29.97,WSW,248,2.0,2.0,89,0.00,,,0.00,Wunderground v.1.15,2013-01-13 20:15:00,
2013-01-13 15:25:00,39.8,36.5,29.97,ESE,109,1.0,1.0,88,0.00,,,0.00,Wunderground v.1.15,2013-01-13 20:25:00,
2013-01-13 15:30:00,39.7,36.7,29.97,ENE,60,1.0,2.0,89,0.00,,,0.00,Wunderground v.1.15,2013-01-13 20:30:00,
2013-01-13 15:35:00,39.5,36.5,29.97,WNW,288,1.0,2.0,89,0.00,,,0.00,Wunderground v.1.15,2013-01-13 20:35:00,
2013-01-13 15:45:00,39.0,36.3,29.97,NE,39,1.0,2.0,90,0.00,,,0.00,Wunderground v.1.15,2013-01-13 20:45:00,
2013-01-13 15:50:00,38.8,36.1,29.97,ESE,106,2.0,2.0,90,0.00,,,0.00,Wunderground v.1.15,2013-01-13 20:50:00,
2013-01-13 15:55:00,38.6,35.9,29.96,SSE,153,2.0,2.0,90,0.00,,,0.00,Wunderground v.1.15,2013-01-13 20:55:00,
2013-01-13 16:05:00,38.1,35.7,29.97,NE,35,2.0,2.0,91,0.00,,,0.00,Wunderground v.1.15,2013-01-13 21:05:00,
2013-01-13 16:10:00,37.9,35.8,29.97,NE,39,3.0,3.0,92,0.00,,,0.00,Wunderground v.1.15,2013-01-13 21:10:00,
2013-01-13 16:15:00,37.8,35.7,29.97,West,281,2.0,3.0,92,0.00,,,0.00,Wunderground v.1.15,2013-01-13 21:15:00,
2013-01-13 16:25:00,37.5,35.7,29.97,ESE,103,2.0,3.0,93,0.00,,,0.00,Wunderground v.1.15,2013-01-13 21:25:00,
2013-01-13 16:30:00,37.3,35.5,29.96,NE,50,2.0,2.0,93,0.00,,,0.00,Wunderground v.1.15,2013-01-13 21:30:00,
2013-01-13 16:40:00,37.0,35.4,29.96,NNE,18,2.0,2.0,94,0.00,,,0.00,Wunderground v.1.15,2013-01-13 21:40:00,
2013-01-13 16:45:00,36.9,35.3,29.96,NNE,30,3.0,3.0,94,0.00,,,0.00,Wunderground v.1.15,2013-01-13 21:45:00,
2013-01-13 16:55:00,36.9,35.3,29.96,North,10,1.0,2.0,94,0.00,,,0.00,Wunderground v.1.15,2013-01-13 21:55:00,
2013-01-13 17:00:00,36.8,35.5,29.96,ESE,115,1.0,1.0,95,0.00,,,0.00,Wunderground v.1.15,2013-01-13 22:00:00,
2013-01-13 17:05:00,36.7,35.4,29.96,North,355,1.0,1.0,95,0.00,,,0.00,Wunderground v.1.15,2013-01-13 22:05:00,
2013-01-13 17:15:00,36.5,35.2,29.96,NE,41,1.0,1.0,95,0.00,,,0.00,Wunderground v.1.15,2013-01-13 22:15:00,
2013-01-13 17:20:00,36.6,35.6,29.97,North,1,1.0,1.0,96,0.00,,,0.00,Wunderground v.1.15,2013-01-13 22:20:00,
2013-01-13 17:25:00,36.6,35.6,29.97,ESE,103,1.0,1.0,96,0.00,,,0.00,Wunderground v.1.15,2013-01-13 22:25:00,
2013-01-13 17:35:00,36.4,35.4,29.97,ESE,118,1.0,2.0,96,0.00,,,0.00,Wunderground v.1.15,2013-01-13 22:35:00,
2013-01-13 17:40:00,36.3,35.3,29.98,NW,322,0.0,0.0,96,0.00,,,0.00,Wunderground v.1.15,2013-01-13 22:40:00,
2013-01-13 17:50:00,36.3,35.3,29.97,NNE,26,0.0,0.0,96,0.00,,,0.00,Wunderground v.1.15,2013-01-13 22:50:00,
2013-01-13 17:55:00,36.2,35.2,29.97,North,356,0.0,1.0,96,0.00,,,0.00,Wunderground v.1.15,2013-01-13 22:55:00,
2013-01-13 18:00:00,36.2,35.2,29.97,NNE,13,0.0,0.0,96,0.00,,,0.00,Wunderground v.1.15,2013-01-13 23:00:00,
2013-01-13 18:10:00,36.2,35.2,29.98,NNE,15,0.0,1.0,96,0.00,,,0.00,Wunderground v.1.15,2013-01-13 23:10:00,
2013-01-13 18:15:00,36.1,35.1,29.97,NNE,25,0.0,1.0,96,0.00,,,0.00,Wunderground v.1.15,2013-01-13 23:15:00,
2013-01-13 18:25:00,36.1,35.1,29.96,NNE,24,0.0,0.0,96,0.00,,,0.00,Wunderground v.1.15,2013-01-13 23:25:00,
2013-01-13 18:30:00,36.2,35.2,29.96,NNE,25,0.0,0.0,96,0.00,,,0.00,Wunderground v.1.15,2013-01-13 23:30:00,
2013-01-13 18:40:00,36.1,35.1,29.96,NNE,24,0.0,0.0,96,0.00,,,0.00,Wunderground v.1.15,2013-01-13 23:40:00,
2013-01-13 18:45:00,36.1,35.1,29.96,NNE,24,0.0,0.0,96,0.00,,,0.00,Wunderground v.1.15,2013-01-13 23:45:00,
2013-01-13 18:50:00,35.9,34.9,29.95,NNE,25,0.0,0.0,96,0.00,,,0.00,Wunderground v.1.15,2013-01-13 23:50:00,
2013-01-13 19:00:00,35.6,34.6,29.95,NNE,26,0.0,0.0,96,0.00,,,0.00,Wunderground v.1.15,2013-01-14 00:00:00,
2013-01-13 19:05:00,35.5,34.5,29.94,NNE,26,0.0,0.0,96,0.00,,,0.00,Wunderground v.1.15,2013-01-14 00:05:00,
2013-01-13 19:15:00,35.7,34.9,29.94,NNE,25,0.0,0.0,97,0.00,,,0.00,Wunderground v.1.15,2013-01-14 00:15:00,
2013-01-13 19:20:00,35.7,34.9,29.96,NNE,26,0.0,0.0,97,0.00,,,0.00,Wunderground v.1.15,2013-01-14 00:20:00,
2013-01-13 19:25:00,35.6,34.8,29.96,ESE,114,0.0,0.0,97,0.00,,,0.00,Wunderground v.1.15,2013-01-14 00:25:00,
2013-01-13 19:35:00,35.3,34.3,29.96,ESE,108,0.0,0.0,96,0.00,,,0.00,Wunderground v.1.15,2013-01-14 00:35:00,
2013-01-13 19:40:00,35.0,34.0,29.95,NNE,20,0.0,0.0,96,0.00,,,0.00,Wunderground v.1.15,2013-01-14 00:40:00,
2013-01-13 19:45:00,35.3,34.5,29.95,NNE,16,0.0,0.0,97,0.00,,,0.00,Wunderground v.1.15,2013-01-14 00:45:00,
2013-01-13 19:55:00,35.3,34.5,29.95,SE,136,0.0,1.0,97,0.00,,,0.00,Wunderground v.1.15,2013-01-14 00:55:00,
2013-01-13 20:00:00,35.3,34.5,29.95,SE,131,0.0,0.0,97,0.00,,,0.00,Wunderground v.1.15,2013-01-14 01:00:00,
2013-01-13 20:10:00,35.1,34.3,29.95,SE,131,0.0,0.0,97,0.00,,,0.00,Wunderground v.1.15,2013-01-14 01:10:00,
2013-01-13 20:15:00,35.2,34.4,29.95,SE,131,0.0,0.0,97,0.00,,,0.00,Wunderground v.1.15,2013-01-14 01:15:00,
2013-01-13 20:20:00,35.1,34.3,29.95,SE,131,0.0,0.0,97,0.00,,,0.00,Wunderground v.1.15,2013-01-14 01:20:00,
2013-01-13 20:30:00,35.2,34.4,29.95,SE,131,0.0,0.0,97,0.00,,,0.00,Wunderground v.1.15,2013-01-14 01:30:00,
2013-01-13 20:35:00,35.1,34.3,29.94,SE,129,0.0,0.0,97,0.00,,,0.00,Wunderground v.1.15,2013-01-14 01:35:00,
2013-01-13 20:45:00,34.8,34.0,29.95,SE,130,0.0,0.0,97,0.00,,,0.00,Wunderground v.1.15,2013-01-14 01:45:00,
2013-01-13 20:50:00,34.6,33.8,29.94,SE,130,0.0,0.0,97,0.00,,,0.00,Wunderground v.1.15,2013-01-14 01:50:00,
2013-01-13 20:55:00,34.7,33.9,29.94,SE,130,0.0,0.0,97,0.00,,,0.00,Wunderground v.1.15,2013-01-14 01:55:00,
2013-01-13 21:05:00,34.7,33.9,29.93,NNW,337,0.0,0.0,97,0.00,,,0.00,Wunderground v.1.15,2013-01-14 02:05:00,
2013-01-13 21:10:00,34.8,34.0,29.93,NNW,337,0.0,0.0,97,0.00,,,0.00,Wunderground v.1.15,2013-01-14 02:10:00,
2013-01-13 21:20:00,34.4,33.6,29.94,NNW,338,0.0,0.0,97,0.00,,,0.00,Wunderground v.1.15,2013-01-14 02:20:00,
2013-01-13 21:25:00,34.4,33.6,29.94,North,3,0.0,0.0,97,0.00,,,0.00,Wunderground v.1.15,2013-01-14 02:25:00,
2013-01-13 21:30:00,34.5,33.7,29.94,North,4,0.0,0.0,97,0.00,,,0.00,Wunderground v.1.15,2013-01-14 02:30:00,
2013-01-13 21:40:00,34.4,33.6,29.93,North,3,0.0,0.0,97,0.00,,,0.00,Wunderground v.1.15,2013-01-14 02:40:00,
2013-01-13 21:45:00,34.5,33.7,29.93,North,3,0.0,0.0,97,0.00,,,0.00,Wunderground v.1.15,2013-01-14 02:45:00,
2013-01-13 21:55:00,34.4,33.6,29.92,North,3,0.0,0.0,97,0.00,,,0.00,Wunderground v.1.15,2013-01-14 02:55:00,
2013-01-13 22:00:00,34.2,33.4,29.92,North,5,0.0,0.0,97,0.00,,,0.00,Wunderground v.1.15,2013-01-14 03:00:00,
2013-01-13 22:05:00,34.2,33.4,29.92,North,5,0.0,0.0,97,0.00,,,0.00,Wunderground v.1.15,2013-01-14 03:05:00,
2013-01-13 22:15:00,34.1,33.3,29.91,North,360,0.0,0.0,97,0.00,,,0.00,Wunderground v.1.15,2013-01-14 03:15:00,
2013-01-13 22:20:00,34.0,33.2,29.93,North,1,0.0,0.0,97,0.00,,,0.00,Wunderground v.1.15,2013-01-14 03:20:00,
2013-01-13 22:30:00,33.9,33.1,29.92,North,1,0.0,0.0,97,0.00,,,0.00,Wunderground v.1.15,2013-01-14 03:30:00,
2013-01-13 22:35:00,34.0,33.2,29.92,North,1,0.0,0.0,97,0.00,,,0.00,Wunderground v.1.15,2013-01-14 03:35:00,
2013-01-13 22:40:00,33.9,33.1,29.92,North,1,0.0,0.0,97,0.00,,,0.00,Wunderground v.1.15,2013-01-14 03:40:00,
2013-01-13 22:50:00,34.0,33.2,29.92,North,1,0.0,0.0,97,0.00,,,0.00,Wunderground v.1.15,2013-01-14 03:50:00,